Terminal Aerodrome Forecast
Issued by NWS King Salmon, AK

Home | Current Version | Previous Version | Text Only | Print | Product List | Glossary On
Versions: 1 2 3 4 5 6 7 8 9 10 11 12 13 14 15 16 17 18 19 20 21 22 23 24 25 26 27 28 29 30 31 32 33 34
000
FTAK31 PANC 190531
TAFAKN
TAF
PAKN 190531Z 1906/2006 26005KT P6SM SCT025 BKN035
      TEMPO 1910/1914 BKN025=

USA.gov is the U.S. government's official web portal to all federal, state and local government web resources and services.